Simultaneous Nadir Overpasses (SNOs) Predictions

Prediction of SNOs near equator between AQUA and NPP Satellite Orbit:

Table of predicted SNOs near equator for the next 14.0 days since TLE Epoch: 7/5/2019
Index Date (AQUA) Time (AQUA) AQUA Lat,Lon Date (NPP) Time (NPP) NPP Lat,Lon Distance(km) Time Diff (sec)
1 07/06/2019 15:42:54 -29.94, 143.43 07/06/2019 15:32:54 -30.55, 142.86 86.60 600
2 07/06/2019 16:24:57 2.97, -42.77 07/06/2019 16:15:51 2.87, -43.14 41.85 546
3 07/06/2019 17:13:03 1.63, 125.86 07/06/2019 17:05:13 1.75, 125.23 71.65 470
4 07/09/2019 07:52:43 -5.90, -95.14 07/09/2019 07:42:48 -5.83, -95.33 22.18 595
5 07/09/2019 08:40:58 1.33, 73.46 07/09/2019 08:32:19 1.22, 73.00 51.94 519
6 07/09/2019 09:29:05 3.22,-117.92 07/09/2019 09:21:41 3.39,-118.63 81.60 444
7 07/12/2019 00:08:45 -4.32, 21.08 07/11/2019 23:59:17 -4.25, 20.80 32.14 568
8 07/12/2019 00:56:59 -0.31,-170.31 07/12/2019 00:48:47 -0.42,-170.86 62.10 492
9 07/12/2019 01:45:07 4.80, -1.70 07/12/2019 01:38:10 4.98, -2.51 91.54 417
10 07/14/2019 15:42:56 30.00, -36.59 07/14/2019 15:32:56 30.28, -37.08 56.17 600
11 07/14/2019 16:24:46 -2.69, 137.31 07/14/2019 16:15:45 -2.61, 136.94 42.29 541
12 07/14/2019 17:13:00 -1.94, -54.08 07/14/2019 17:05:15 -2.06, -54.72 72.26 465
13 07/17/2019 07:52:38 5.57, 84.92 07/17/2019 07:42:49 5.53, 84.72 22.77 589
14 07/17/2019 08:40:46 -1.06,-106.46 07/17/2019 08:32:12 -0.97,-106.93 52.52 514
15 07/17/2019 09:29:00 -3.56, 62.14 07/17/2019 09:21:42 -3.70, 61.41 82.37 438




NCC Satellite Simultaneous Nadir Overpasses (SNOs) Prediction Service
